Chennai, India

12:02 AM IST on August 19, 2017 (GMT +0530)
Chennai International

Weather History for VOMM - November, 2012

Change the Weather History Date:

Wednesday, November 21, 2012

  Actual Average Record
Temperature  
Mean Temperature 84 °F -  
Max Temperature 91 °F 81 °F 91 °F (2012)
Min Temperature 77 °F 71 °F 71 °F (2008)
Cooling Degree Days 19    
Growing Degree Days 34 (Base 50)    
Moisture  
Dew Point 75 °F    
Average Humidity 78    
Maximum Humidity 89    
Minimum Humidity 58    
Precipitation  
Precipitation 0.00 in 0.30 in - ()
Sea Level Pressure  
Sea Level Pressure 29.81 in    
Wind  
Wind Speed 4 mph ()    
Max Wind Speed 15 mph    
Max Gust Speed 23 mph    
Visibility 3.2 miles    
Events Rain    
Averages and records for this station are not official NWS values.
T = Trace of Precipitation, MM = Missing Value Source: Averaged Metar Reports

Daily Weather History Graph

Daily Weather History Graph

Search for Another Location

Airport or City:

Trip Planner

Search our weather history database for the weather conditions in past years. The results will help you decide how hot, cold, wet, or windy it might be!

Date:

Astronomy

Nov. 21, 2012 Rise Set
Actual Time 6:10 AM IST 5:39 PM IST
Civil Twilight 5:48 AM IST 6:02 PM IST
Nautical Twilight 5:22 AM IST 6:28 PM IST
Astronomical Twilight 4:56 AM IST 6:53 PM IST
Moon 12:41 PM IST (11/21) No Moon Set
Length of Visible Light 12h 13m
Length of Day
11h 28m
First Quarter, 57% of the Moon is Illuminated
Nov 21
First Quarter
Nov 28
Full
Dec 6
Last Quarter
Dec 13
New
Dec 20
First Quarter

Hourly Weather History & Observations

Time (IST) Temp. Heat Index Dew Point Humidity Pressure Visibility Wind Dir Wind Speed Gust Speed Precip Events Conditions
12:10 AM 78.8 °F - 75.2 °F 89% 29.80 in 3.7 mi Calm Calm - N/A   Scattered Clouds
12:40 AM 78.8 °F - 75.2 °F 89% 29.80 in 2.5 mi Calm Calm - N/A   Haze
1:10 AM 78.8 °F - 75.2 °F 89% 29.80 in 2.5 mi Calm Calm - N/A   Haze
1:40 AM 78.8 °F - 75.2 °F 89% 29.77 in 2.5 mi Calm Calm - N/A   Haze
2:10 AM 78.8 °F - 75.2 °F 89% 29.77 in 2.5 mi Calm Calm - N/A   Haze
2:30 AM 81 °F - 75 °F 78% 29.78 in 2 mi Calm Calm - -   Scattered Clouds
2:40 AM 78.8 °F - 75.2 °F 89% 29.74 in 2.5 mi Calm Calm - N/A   Haze
3:10 AM 78.8 °F - 75.2 °F 89% 29.74 in 2.5 mi Calm Calm - N/A   Haze
3:40 AM 78.8 °F - 75.2 °F 89% 29.74 in 2.5 mi Calm Calm - N/A   Haze
4:10 AM 78.8 °F - 75.2 °F 89% 29.77 in 2.5 mi Calm Calm - N/A   Haze
4:40 AM 78.8 °F - 75.2 °F 89% 29.80 in 2.5 mi Calm Calm - N/A   Haze
5:10 AM 78.8 °F - 75.2 °F 89% 29.80 in 2.5 mi Calm Calm - N/A   Haze
5:30 AM 81 °F - 75 °F 77% 29.83 in 2 mi West 2.3 mph - - Rain Light Drizzle
5:40 AM 78.8 °F - 75.2 °F 89% 29.80 in 2.2 mi Calm Calm - N/A   Haze
6:10 AM 78.8 °F - 75.2 °F 89% 29.80 in 2.2 mi WSW 4.6 mph - N/A   Haze
6:40 AM 78.8 °F - 75.2 °F 89% 29.83 in 2.2 mi WNW 3.5 mph - N/A   Haze
7:10 AM 78.8 °F - 75.2 °F 89% 29.83 in 2.2 mi WNW 4.6 mph - N/A   Haze
7:40 AM 80.6 °F 86.2 °F 75.2 °F 84% 29.86 in 2.2 mi Calm Calm - N/A   Haze
8:10 AM 82.4 °F 89.5 °F 75.2 °F 79% 29.89 in - Calm Calm - N/A   Haze
8:30 AM 85 °F - 75 °F 66% 29.90 in 6 mi North 2.3 mph - -   Scattered Clouds
8:40 AM 84.2 °F 92.3 °F 75.2 °F 74% 29.89 in 2.8 mi NNW 8.1 mph - N/A   Haze
9:40 AM 86.0 °F 95.1 °F 75.2 °F 70% 29.86 in 3.7 mi NW 11.5 mph - N/A   Scattered Clouds
10:10 AM 87.8 °F 97.6 °F 75.2 °F 66% 29.86 in 3.7 mi NNW 11.5 mph - N/A   Scattered Clouds
10:40 AM 86.0 °F 93.4 °F 73.4 °F 66% 29.83 in 3.7 mi NNW 9.2 mph - N/A   Scattered Clouds
11:10 AM 87.8 °F 97.6 °F 75.2 °F 66% 29.83 in 4.3 mi NNW 10.4 mph - N/A   Scattered Clouds
11:40 AM 87.8 °F 95.6 °F 73.4 °F 62% 29.80 in 4.3 mi NW 9.2 mph - N/A   Scattered Clouds
12:10 PM 87.8 °F 95.6 °F 73.4 °F 62% 29.80 in 4.3 mi NW 9.2 mph - N/A   Scattered Clouds
12:40 PM 87.8 °F 95.6 °F 73.4 °F 62% 29.77 in 4.3 mi NW 12.7 mph - N/A   Partly Cloudy
1:10 PM 89.6 °F 98.2 °F 73.4 °F 59% 29.74 in 4.3 mi North 12.7 mph - N/A   Partly Cloudy
1:40 PM 87.8 °F 95.6 °F 73.4 °F 62% 29.74 in 3.7 mi NNW 10.4 mph - N/A   Scattered Clouds
2:10 PM 86.0 °F 95.1 °F 75.2 °F 70% 29.74 in 3.7 mi North 13.8 mph - N/A   Partly Cloudy
2:30 PM 88 °F - 75 °F 58% 29.78 in 2 mi NNE 5.8 mph - -   Mostly Cloudy
2:40 PM 86.0 °F 95.1 °F 75.2 °F 70% 29.74 in 3.7 mi NNE 11.5 mph - N/A   Partly Cloudy
3:10 PM 84.2 °F 92.3 °F 75.2 °F 74% 29.77 in 3.7 mi North 9.2 mph 20.7 mph N/A   Partly Cloudy
3:40 PM 84.2 °F 90.9 °F 73.4 °F 70% 29.77 in 3.7 mi North 11.5 mph 23.0 mph N/A   Partly Cloudy
4:10 PM 84.2 °F 92.3 °F 75.2 °F 74% 29.77 in 3.7 mi NNW 11.5 mph 23.0 mph N/A   Partly Cloudy
4:40 PM 84.2 °F 92.3 °F 75.2 °F 74% 29.74 in 3.7 mi NNE 9.2 mph 20.7 mph N/A   Partly Cloudy
5:10 PM 82.4 °F 88.2 °F 73.4 °F 74% 29.77 in 3.7 mi North 11.5 mph 23.0 mph N/A   Partly Cloudy
5:30 PM 83 °F - 73 °F 65% 29.81 in 2 mi NNE 6.9 mph - -   Partly Cloudy
5:40 PM 82.4 °F 88.2 °F 73.4 °F 74% 29.77 in 3.7 mi NNW 11.5 mph 23.0 mph N/A   Partly Cloudy
6:10 PM 82.4 °F 88.2 °F 73.4 °F 74% 29.80 in 3.7 mi North 10.4 mph 21.9 mph N/A   Scattered Clouds
6:40 PM 82.4 °F 89.5 °F 75.2 °F 79% 29.80 in 3.7 mi NW 9.2 mph 20.7 mph N/A   Scattered Clouds
7:10 PM 80.6 °F 86.2 °F 75.2 °F 84% 29.80 in 3.7 mi North 15.0 mph - N/A   Scattered Clouds
7:40 PM 80.6 °F 86.2 °F 75.2 °F 84% 29.83 in 3.7 mi NNW 10.4 mph - N/A   Mostly Cloudy
8:10 PM 80.6 °F 86.2 °F 75.2 °F 84% 29.83 in 3.7 mi NNW 9.2 mph - N/A   Mostly Cloudy
8:30 PM 82 °F - 75 °F 73% 29.86 in 2 mi North 4.6 mph - - Rain Light Drizzle
8:40 PM 80.6 °F 86.2 °F 75.2 °F 84% 29.83 in 3.7 mi NNW 9.2 mph - N/A   Mostly Cloudy
9:10 PM 80.6 °F 86.2 °F 75.2 °F 84% 29.86 in 3.7 mi NNW 9.2 mph - N/A   Mostly Cloudy
9:40 PM 80.6 °F 86.2 °F 75.2 °F 84% 29.86 in 3.7 mi NW 4.6 mph - N/A   Mostly Cloudy
10:10 PM 80.6 °F 86.2 °F 75.2 °F 84% 29.86 in 3.7 mi NNW 6.9 mph - N/A   Mostly Cloudy
10:40 PM 80.6 °F 86.2 °F 75.2 °F 84% 29.83 in 3.7 mi NNW 6.9 mph - N/A   Mostly Cloudy
11:10 PM 80.6 °F 86.2 °F 75.2 °F 84% 29.83 in 3.7 mi North 10.4 mph - N/A   Mostly Cloudy
11:30 PM 80 °F - 76 °F 82% 29.86 in 2 mi NNW 3.5 mph - -   Partly Cloudy
11:40 PM 78.8 °F - 75.2 °F 89% 29.83 in 3.7 mi NNW 6.9 mph - N/A   Mostly Cloudy